Regional Weather Roundup
Issued by NWS

Home | Current Version | Previous Version | Text Only | Print | Product List | Glossary On
Versions: 1 2 3 4 5 6 7 8 9 10 11 12 13 14 15 16 17 18 19 20 21 22 23 24 25 26 27 28 29 30 31 32 33 34 35 36 37 38 39 40 41 42 43 44 45 46 47 48 49 50
000
ASUS44 KLIX 240212
RWRLA
LOUISIANA WEATHER ROUNDUP
NATIONAL WEATHER SERVICE NEW ORLEANS LA
800 PM CST MON JAN 23 2017

NOTE: "FAIR" INDICATES FEW OR NO CLOUDS BELOW 12,000 FEET WITH NO
      SIGNIFICANT WEATHER AND/OR OBSTRUCTIONS TO VISIBILITY.
      SKY/WX - SKY CONDITION AND SIGNIFICANT WEATHER.
      TMP - AIR TEMPERATURE.    DP   - DEWPOINT TEMPERATURE.
      RH  - RELATIVE HUMIDITY.  PRES - PRESSURE.
      HX  - HEAT INDEX.         WCI  - WIND CHILL INDEX.

*  THESE STATIONS ARE NOT NWS OR FAA STATIONS AND ARE NOT UNDER
   NWS QUALITY CONTROL.

LAZ040-048-061>063-065-066-069-240300-
SOUTHEAST LOUISIANA

CITY           SKY/WX    TMP DP  RH WIND       PRES   REMARKS
N.O. AUDUBON   NOT AVBL
N.O. INTL ARPT CLEAR     56  46  69 W5        29.89R
N.O. LAKEFRONT CLEAR     62  51  67 W14       29.89R
N.O. DOWNTOWN*   N/A     63  47  55 VRB5      29.90R
RESERVE*       FAIR      60  45  57 W3        29.89S
SLIDELL        CLEAR     53  48  83 CALM      29.87S
BATON ROUGE    CLEAR     55  45  68 CALM      29.88S
BOOTHVILLE     CLEAR     55  50  83 W5        29.90R
BELLE CHASSE   CLEAR     52  48  86 CALM      29.89R
BOGALUSA*      FAIR      54  47  75 W5        29.89S
GALLIANO*      CLEAR     57  46  66 W7        29.90S
NEW ROADS*     FAIR      53  47  81 CALM      29.88F
GONZALES*      FAIR      55  45  68 CALM      29.89R
HAMMOND*       CLEAR     52  43  71 CALM      29.88S
HOUMA*         CLEAR     55  49  83 SW5       29.90S
PORT FOURCHON* CLEAR     61  50  67 W14       29.91R

$$

LAZ041-044-053-054-240300-
SOUTHWEST LOUISIANA

CITY           SKY/WX    TMP DP  RH WIND       PRES   REMARKS
LAKE CHARLES   CLEAR     52  43  71 S3        29.90R
LAFAYETTE      CLEAR     58  46  64 CALM      29.89S
PATTERSON      CLEAR     54  46  74 SW3       29.91S
SALT POINT     NOT AVBL
NEW IBERIA     CLEAR     51  44  77 S3        29.90S
CHENAULT AIRPK CLEAR     52  43  71 CALM      29.91R

$$

LAZ027-028-240300-
CENTRAL LOUISIANA

CITY           SKY/WX    TMP DP  RH WIND       PRES   REMARKS
FORT POLK      CLEAR     50  42  74 CALM      29.88F
ALEXANDRIA INT CLEAR     53  44  71 CALM      29.87F
ALEXANDRIA     CLEAR     46  43  89 CALM      29.89S

$$

LAZ001-002-240300-
NORTHWEST LOUISIANA

CITY           SKY/WX    TMP DP  RH WIND       PRES   REMARKS
SHREVEPORT     CLEAR     49  39  68 CALM      29.86S
BARKSDALE AFB  CLEAR     49  37  63 CALM      29.86S
DTN SHREVEPORT CLEAR     51  36  56 CALM      29.86S

$$

LAZ014-016-240300-
NORTHEAST LOUISIANA

CITY           SKY/WX    TMP DP  RH WIND       PRES   REMARKS
MONROE         CLEAR     51  41  68 CALM      29.89S
TALLULAH       CLEAR     46  42  86 CALM      29.88F

$$




USA.gov is the U.S. government's official web portal to all federal, state and local government web resources and services.